Location: ??????????
(54.4061°N, 22.6114°E)
Time: 20:07:41
(UTC+00:00)

USA 238 DEB - Visible Passes

Search period start: 20 January 2020 00:00
Search period end: 30 January 2020 00:00
Orbit: 1024 x 1188 km, 63.4° (Epoch: 16 January)

Date Brightness Start Highest point End Pass type
(mag) Time Alt. Az. Time Alt. Az. Time Alt. Az.
20 Jan 5.4 01:16:16 28° ENE 01:16:16 28° ENE 01:19:41 10° E visible
20 Jan 3.6 03:03:43 76° NW 03:04:22 89° SW 03:11:47 10° SE visible
20 Jan 4.6 04:51:11 20° WNW 04:54:43 30° WSW 05:00:55 10° S visible
21 Jan 6.1 00:33:15 15° ENE 00:33:15 15° ENE 00:34:22 10° E visible
21 Jan 4.1 02:20:43 61° E 02:20:43 61° E 02:26:51 10° ESE visible
21 Jan 4.2 04:08:11 35° W 04:10:13 42° WSW 04:17:03 10° S visible
22 Jan 5.1 01:37:48 33° E 01:37:48 33° E 01:41:45 10° ESE visible
22 Jan 3.8 03:25:16 58° WSW 03:25:37 58° SW 03:32:49 10° SSE visible
22 Jan 5.2 05:12:44 14° W 05:15:18 16° WSW 05:19:33 10° SW visible
23 Jan 5.9 00:54:57 17° E 00:54:57 17° E 00:56:31 10° E visible
23 Jan 4.1 02:42:26 58° SSE 02:42:26 58° SSE 02:48:16 10° SE visible
23 Jan 4.8 04:29:55 24° W 04:31:00 24° WSW 04:36:39 10° SSW visible
24 Jan 5.0 01:59:42 33° SE 01:59:42 33° SE 02:03:29 10° SE visible
24 Jan 4.5 03:47:12 34° SW 03:47:12 34° SW 03:53:05 10° S visible
24 Jan 5.4 17:40:01 10° SSE 17:41:14 14° SSE 17:41:14 14° SSE visible
24 Jan 6.0 19:28:29 10° SW 19:28:45 11° SW 19:28:45 11° SW visible
25 Jan 5.9 01:17:03 17° ESE 01:17:03 17° ESE 01:18:28 10° ESE visible
25 Jan 4.6 03:04:33 35° S 03:04:33 35° S 03:09:03 10° SSE visible
25 Jan 5.5 04:52:02 12° WSW 04:52:02 12° WSW 04:54:14 10° SW visible
25 Jan 5.3 16:57:04 10° SE 16:58:53 14° SE 16:58:53 14° SE visible
25 Jan 5.1 18:43:56 10° SSW 18:46:24 24° SSW 18:46:24 24° SSW visible
26 Jan 5.3 02:22:01 24° SSE 02:22:01 24° SSE 02:24:41 10° SSE visible
26 Jan 5.3 04:09:31 17° SW 04:09:31 17° SW 04:12:09 10° SSW visible
26 Jan 4.4 17:59:40 10° SSW 18:03:59 35° SSE 18:03:59 35° SSE visible
26 Jan 5.7 19:49:54 10° WSW 19:51:29 18° WSW 19:51:29 18° WSW visible
27 Jan 6.1 01:39:34 12° SE 01:39:34 12° SE 01:40:02 10° SE visible
27 Jan 5.5 03:27:05 17° SSW 03:27:05 17° SSW 03:28:57 10° S visible
27 Jan 4.4 17:15:46 10° S 17:21:28 30° ESE 17:21:30 30° ESE visible
27 Jan 4.6 19:05:00 10° SW 19:08:59 40° SW 19:08:59 40° SW visible
28 Jan 5.9 02:44:43 12° S 02:44:43 12° S 02:45:10 10° S visible
28 Jan 4.8 16:32:22 10° SSE 16:37:07 21° ESE 16:38:56 19° E visible
28 Jan 3.6 18:20:17 10° SW 18:26:26 69° SSE 18:26:26 69° SSE visible
28 Jan 5.6 20:11:43 10° W 20:13:55 22° W 20:13:55 22° W visible
29 Jan 5.3 15:49:54 10° SE 15:52:54 13° ESE 15:55:57 10° ENE visible
29 Jan 3.8 17:35:51 10° SSW 17:42:19 53° SE 17:43:45 46° E visible
29 Jan 4.6 19:26:34 10° WSW 19:31:14 44° W 19:31:14 44° W visible
